Location: Ostrava
(49.8330°N, 18.2830°E)
Time: 21:52:40
(UTC+02:00)

Lacrosse 5 - Visible Passes

Search period start: 19 October 2017 00:00
Search period end: 29 October 2017 00:00
Orbit: 716 x 722 km, 57.0° (Epoch: 16 October)

Date Brightness Start Highest point End Pass type
(mag) Time Alt. Az. Time Alt. Az. Time Alt. Az.
19 Oct 2.7 04:06:26 48° NE 04:06:26 48° NE 04:10:06 10° NE visible
19 Oct 2.7 05:45:39 21° WNW 05:48:32 39° N 05:53:17 10° ENE visible
20 Oct 4.2 03:15:17 20° ENE 03:15:17 20° ENE 03:16:52 10° ENE visible
20 Oct 2.4 04:54:29 43° NW 04:55:03 45° NNW 04:59:57 10° ENE visible
20 Oct 2.8 06:34:10 10° WNW 06:38:54 37° N 06:43:38 10° ENE visible
21 Oct 3.0 04:03:19 39° NE 04:03:19 39° NE 04:06:41 10° NE visible
21 Oct 2.8 05:42:31 20° NW 05:45:23 36° N 05:50:05 10° ENE visible
22 Oct 4.4 03:12:08 18° NE 03:12:08 18° NE 03:13:27 10° NE visible
22 Oct 2.6 04:51:20 38° NNW 04:51:53 39° N 04:56:38 10° ENE visible
22 Oct 2.7 06:30:54 10° WNW 06:35:44 42° NNE 06:40:34 10° E visible
23 Oct 3.3 04:00:09 33° NNE 04:00:09 33° NNE 04:03:18 10° ENE visible
23 Oct 2.9 05:39:21 20° NW 05:42:14 37° N 05:46:58 10° ENE visible
24 Oct 4.5 03:08:58 16° NE 03:08:58 16° NE 03:10:02 10° NE visible
24 Oct 2.8 04:48:10 35° NNW 04:48:43 36° N 04:53:26 10° ENE visible
24 Oct 2.5 06:27:33 10° NW 06:32:30 51° NNE 06:37:27 10° E visible
25 Oct 3.5 03:56:59 29° NNE 03:56:59 29° NNE 03:59:59 10° ENE visible
25 Oct 2.8 05:36:11 22° NW 05:39:05 42° NNE 05:43:54 10° E visible
26 Oct 4.6 03:05:50 14° NE 03:05:50 14° NE 03:06:38 10° ENE visible
26 Oct 2.8 04:45:02 36° N 04:45:35 37° N 04:50:18 10° ENE visible
26 Oct 2.1 06:24:14 11° NW 06:29:12 68° NNE 06:34:16 10° ESE visible
27 Oct 3.7 03:53:54 28° NE 03:53:54 28° NE 03:56:46 10° ENE visible
27 Oct 2.5 05:33:06 25° NW 05:35:51 51° NNE 05:40:48 10° E visible
28 Oct 4.8 03:02:48 13° ENE 03:02:48 13° ENE 03:03:19 10° ENE visible
28 Oct 2.7 04:42:00 41° N 04:42:25 42° NNE 04:47:14 10° E visible
28 Oct 1.9 06:21:13 13° WNW 06:25:48 86° SW 06:30:53 10° SE visible
